Hourly Data Report for July 29, 2021

NORTH CAPE
PRINCE EDWARD ISLAND
Current Station Operator: ECCC - MSC

47°03'29.000" N
63°59'55.000" W
7.60 m
8300516
71987
WNE

Download Data

Hourly Data (July 2021)
Hourly Data Report for July 29, 2021
TIME
LST
Temp Definition
°C
Dew Point Definition
°C
Rel Hum Definition
%
Precip. Amount Definition
mm

Wind Dir Definition
10's deg

Wind Spd Definition
km/h
Visibility Definition
km
Stn Press Definition
kPa
Hmdx Definition


Wind Chill Definition


Weather Definition


00:00 18.4 11.0 62 0.0 29 29   101.08     LegendNANA
01:00 18.0 11.0 64 0.0 29 29   101.05     LegendNANA
02:00 17.5 11.1 66 0.0 29 31   101.06     LegendNANA
03:00 17.4 11.1 67 0.0 29 28   101.07     LegendNANA
04:00 17.0 11.0 68 0.0 28 28   101.09     LegendNANA
05:00 16.7 11.5 72 0.0 29 27   101.09     LegendNANA
06:00 16.8 11.7 72 0.0 28 26   101.12     LegendNANA
07:00 17.2 12.2 73 0.0 29 24   101.16     LegendNANA
08:00 17.0 11.8 71 0.0 27 28   101.19     LegendNANA
09:00 17.4 12.5 73 0.0 27 20   101.20     LegendNANA
10:00 17.9 13.1 74 0.0 25 23   101.21     LegendNANA
11:00 18.4 12.1 67 0.0 24 22   101.19     LegendNANA
12:00 19.2 12.3 64 0.0 23 27   101.15     LegendNANA
13:00 20.7 12.4 59 0.0 23 23   101.10     LegendNANA
14:00 21.4 11.7 54 0.0 23 21   101.04     LegendNANA
15:00 22.5 11.1 49 0.0 23 19   100.98     LegendNANA
16:00 22.9 11.0 47 0.0 23 18   100.96 25   LegendNANA
17:00 23.4 10.1 43 0.0 22 18   100.92 25   LegendNANA
18:00 22.7 12.0 51 0.0 22 17   100.90 25   LegendNANA
19:00 20.4 10.4 53 0.0 20 11   100.88     LegendNANA
20:00 18.9 10.9 60 0.0 19 15   100.88     LegendNANA
21:00 18.7 11.2 62 0.0 20 21   100.91     LegendNANA
22:00 18.9 9.0 53 0.0 21 25   100.91     LegendNANA
23:00 19.0 7.9 49 0.0 22 23   100.89     LegendNANA

Notes on Data Quality.

Legend

  • E = Estimated
  • M = Missing
  • NA = Not Available*
  • [empty] = Indicates an unobserved value
Date modified: